DW8222 Weather Reports


Display with metric or nautical units.
time (UTC)temp
F
wind
direction
speed
MPH
gust
MPH
rain 1hr
in
rain 24hr
in
rain mn
in
humidity
%
barometer
mb
20260506210008 68 297 7.0 23.0 0.00 0.00 0.00 48 1012.9
20260506204504 69 283 9.0 28.0 0.00 0.00 0.00 46 1012.9
20260506203104 70 277 8.0 17.0 0.00 0.00 0.00 46 1012.8
20260506203002 70 293 8.0 17.0 0.00 0.00 0.00 45 1012.9
20260506201557 70 311 9.0 24.0 0.00 0.00 0.00 46 1012.7
20260506200136 71 293 8.0 21.0 0.00 0.00 0.00 45 1012.5
20260506194555 70 266 11.0 19.0 0.00 0.00 0.00 45 1012.4
20260506193148 69 272 9.0 18.0 0.00 0.00 0.00 47 1012.2
20260506191547 70 293 10.0 24.0 0.00 0.00 0.00 47 1012.5
20260506190041 70 288 6.0 22.0 0.00 0.00 0.00 47 1012.4
20260506184537 70 267 8.0 26.0 0.00 0.00 0.00 46 1012.4
20260506183035 68 280 13.0 26.0 0.00 0.00 0.00 48 1012.5
20260506181535 68 281 11.0 25.0 0.00 0.00 0.00 50 1012.5
20260506180034 68 295 6.0 20.0 0.00 0.00 0.00 49 1012.3
20260506174526 67 288 11.0 20.0 0.00 0.00 0.00 49 1012.5
20260506173019 66 290 9.0 22.0 0.00 0.00 0.00 52 1012.4
20260506171533 66 277 4.0 16.0 0.00 0.00 0.00 52 1012.7
20260506170011 65 293 5.0 14.0 0.00 0.00 0.00 56 1012.8
20260506164504 64 289 8.0 20.0 0.00 0.00 0.00 56 1012.9
20260506163003 63 296 9.0 18.0 0.00 0.00 0.00 56 1012.9
20260506161558 62 301 8.0 17.0 0.00 0.00 0.00 60 1013.2
20260506160059 61 283 8.0 17.0 0.00 0.00 0.00 63 1013.0
20260506154544 60 304 7.0 17.0 0.00 0.00 0.00 64 1013.0
20260506153042 59 332 7.0 13.0 0.00 0.00 0.00 67 1013.3
20260506151534 58 312 6.0 16.0 0.00 0.00 0.00 70 1013.3
20260506150033 56 321 6.0 11.0 0.00 0.00 0.00 73 1013.5
20260506144527 55 333 4.0 11.0 0.00 0.00 0.00 76 1013.6
20260506143024 54 293 6.0 10.0 0.00 0.00 0.00 78 1013.6
20260506141522 52 348 3.0 9.0 0.00 0.00 0.00 82 1013.6
20260506140020 49 43 1.0 4.0 0.00 0.00 0.00 84 1013.7
20260506134534 48 23 5.0 12.0 0.00 0.00 0.00 90 1013.6
20260506133015 46 277 0.0 4.0 0.00 0.00 0.00 88 1013.5
20260506131511 45 280 1.0 3.0 0.00 0.00 0.00 89 1013.4
20260506130010 44 283 1.0 2.0 0.00 0.00 0.00 91 1013.4
20260506124510 44 285 0.0 4.0 0.00 0.00 0.00 89 1013.3
20260506123059 46 279 2.0 5.0 0.00 0.00 0.00 88 1013.1
20260506121605 47 307 2.0 5.0 0.00 0.00 0.00 85 1013.1
20260506120050 47 287 0.0 3.0 0.00 0.00 0.00 83 1012.9
20260506114552 49 294 1.0 5.0 0.00 0.00 0.00 82 1012.9
20260506113045 49 348 2.0 5.0 0.00 0.00 0.00 86 1012.8
20260506111542 49 281 2.0 6.0 0.00 0.00 0.00 82 1012.7
20260506110039 51 5 3.0 8.0 0.00 0.00 0.00 81 1012.4
20260506104536 52 1 4.0 10.0 0.00 0.00 0.00 80 1012.4
20260506103034 51 339 5.0 9.0 0.00 0.00 0.00 81 1012.2
20260506101533 47 288 1.0 3.0 0.00 0.00 0.00 86 1012.3
20260506100033 50 313 1.0 5.0 0.00 0.00 0.00 79 1012.1
20260506094524 53 330 4.0 8.0 0.00 0.00 0.00 77 1012.1
20260506093019 53 326 4.0 15.0 0.00 0.00 0.00 76 1012.1
20260506091514 54 335 5.0 11.0 0.00 0.00 0.00 75 1011.9
20260506090009 54 342 6.0 12.0 0.00 0.00 0.00 74 1011.9
20260506084506 54 343 5.0 12.0 0.00 0.00 0.00 73 1011.8
20260506083005 54 4 6.0 13.0 0.00 0.00 0.00 74 1011.8
20260506081558 55 342 6.0 11.0 0.00 0.00 0.00 73 1011.9
20260506073042 57 299 5.0 12.0 0.00 0.00 0.00 69 1011.6
20260506071538 57 321 7.0 12.0 0.00 0.00 0.00 69 1011.5
20260506061533 59 352 6.0 17.0 0.00 0.00 0.00 66 1011.1
20260506044517 63 317 7.0 18.0 0.00 0.00 0.00 59 1010.4
20260506043013 64 288 10.0 21.0 0.00 0.00 0.00 57 1010.3
20260506041507 65 300 8.0 19.0 0.00 0.00 0.00 56 1010.1
20260506040006 66 252 8.0 15.0 0.00 0.00 0.00 55 1010.1
20260506034508 66 277 7.0 15.0 0.00 0.00 0.00 54 1009.8
20260506033008 67 300 5.0 18.0 0.00 0.00 0.00 53 1009.6
20260506031502 68 262 9.0 18.0 0.00 0.00 0.00 52 1009.4
20260506030003 69 262 9.0 17.0 0.00 0.00 0.00 50 1009.2
20260506024606 71 289 6.0 15.0 0.00 0.00 0.00 48 1009.1
20260506023056 72 266 5.0 18.0 0.00 0.00 0.00 46 1009.0
20260506021553 73 278 4.0 12.0 0.00 0.00 0.00 45 1008.9
20260506020106 74 228 8.0 19.0 0.00 0.00 0.00 43 1008.8
20260506014651 74 262 6.0 14.0 0.00 0.00 0.00 42 1008.6
20260506013049 75 318 8.0 18.0 0.00 0.00 0.00 39 1008.6
20260506011610 76 204 8.0 17.0 0.00 0.00 0.00 37 1008.6
20260506010046 77 274 7.0 16.0 0.00 0.00 0.00 36 1008.5
20260506004557 77 293 9.0 17.0 0.00 0.00 0.00 34 1008.6
20260506003037 78 288 4.0 18.0 0.00 0.00 0.00 34 1008.4
20260506001537 78 259 7.0 13.0 0.00 0.00 0.00 34 1008.4
20260506000058 79 276 7.0 16.0 0.00 0.00 0.00 34 1008.5
20260505234541 79 221 8.0 22.0 0.00 0.00 0.00 31 1008.7
20260505233029 79 250 7.0 16.0 0.00 0.00 0.00 30 1008.6
20260505231527 79 256 8.0 16.0 0.00 0.00 0.00 30 1008.7
20260505230047 80 233 8.0 16.0 0.00 0.00 0.00 29 1008.8
20260505224534 80 260 7.0 13.0 0.00 0.00 0.00 30 1008.7
20260505223023 80 267 8.0 14.0 0.00 0.00 0.00 31 1008.9
20260505221517 78 289 9.0 15.0 0.00 0.00 0.00 32 1008.9
20260505220013 77 335 1.0 11.0 0.00 0.00 0.00 37 1009.0
20260505214517 77 19 4.0 11.0 0.00 0.00 0.00 37 1009.0
20260505213011 77 261 5.0 11.0 0.00 0.00 0.00 37 1009.3
20260505211519 77 120 3.0 9.0 0.00 0.00 0.00 40 1009.2